Voltar ao catálogo

STARLINK-33897

AtivoComunicaçõesVLEO
NORAD 63865·PAYLOAD·🇺🇸 United States

Lançado May 10, 2025 de Vandenberg Space Force Base

Loading…

Próximas Passagens (próximas 24 horas)

TLE

AtualizadoSource: CelesTrak SupGP

Época: Sep 14, 2026, 22:28 UTC

1 63865C 25094B   26257.93659722  .00028635  00000+0  99612-3 0  2573
2 63865  69.9991 115.7882 0003162 274.0593 261.0504 15.29564522    17

Acompanhe STARLINK-33897 em tempo real com AllMySat

Download on the App Store